{"data":{"norad_id":46347,"intl_designator":"2020-062Y","name":"STARLINK-1547","alt_names":[],"object_type":"PAYLOAD","status":"ACTIVE","operator":null,"country":"US","launch_date":"2020-09-03","launch_site_code":"AFETR","launch_vehicle":null,"mission":null,"orbit_class":"UNKNOWN","rcs_meters":null,"size_class":null,"mass_kg":null,"dimensions":null,"purposes":["comms"],"wikipedia_slug":null,"has_3d_model":false,"image_url":null,"decayed_at":null,"tle_current":{"epoch":"2026-05-25T00:57:47.994048Z","epoch_age_seconds":81697,"freshness":"FRESH","line1":"1 46347U 20062Y   26145.04013882  .00176357  00000+0  83288-3 0  9998","line2":"2 46347  53.0311 259.7946 0005393 334.2591  25.8161 15.82017703317680","mean_motion":15.82017703,"eccentricity":0.0005393,"inclination_deg":53.0311,"raan_deg":259.7946,"arg_perigee_deg":334.2591,"mean_anomaly_deg":25.8161,"bstar":0.00083288,"rev_number":31768,"period_min":91.023001656006,"perigee_km":321.12048965945,"apogee_km":328.35020777478,"semimajor_km":6702.8723487171,"source":"CELESTRAK","updated_at":"2026-05-25T13:38:16.471795Z"}}}